Location: Arcusa
(42.3167°N, 0.0833°W)
Time: 08:17:47
(UTC+00:00)

Cosmos 1821 Rocket - Pass Details

Date: 25 January 2020
Orbit: 944 x 1005 km, 82.9° (Epoch: 27 February)

Event Time Altitude Azimuth Distance (km) Brightness Sun altitude
Rises 06:28:46 0° 351° (N) 3,660 6.7 -9.8°
Reaches altitude 10° 06:31:18 10° 351° (N) 2,701 6.1 -9.4°
Maximum altitude 06:37:28 84° 264° (W) 962 4.0 -8.3°
Drops below altitude 10° 06:43:33 10° 177° (S) 2,657 6.6 -7.2°
Sets 06:46:00 0° 177° (S) 3,596 7.3 -6.8°
